Voltar ao catálogo

METEOR 2-5 DEB

AtivoPO
NORAD 39603·DEBRIS·🇷🇺 Russia

Lançado Oct 31, 1979 de Plesetsk Cosmodrome

Loading…

Próximas Passagens (próximas 24 horas)

TLE

EnvelhecendoSource: Space-Track

Época: Sep 7, 2026, 19:18 UTC

1 39603U 79095CE  26250.80464515  .00002609  00000-0  91862-3 0  9995
2 39603  81.1988  78.9354 0010868 197.0439 163.0382 14.34610187655318

Acompanhe METEOR 2-5 DEB em tempo real com AllMySat

Download on the App Store